User: anonymous   Login
Location: Delta State University
(33.7460°N, 90.7320°W)
Time: 08:52:19
(UTC-05:00)
Language:

Iridium 13 - Orbit

View from above orbital plane
View from above orbital plane
View from above satellite
View from above satellite

Ground track
Ground track

The orbit data is extracted from the following two-line orbital elements,

1 24840U 97030E   15212.30762530  .00000257  00000-0  84787-4 0  9996
2 24840 086.3957 277.3072 0002102 093.7527 309.6271 14.34216692948494
Epoch (UTC): 31 July 2015 07:22:58
Eccentricity: 0.0002102
inclination: 86.3957°
perigee height: 776 km
apogee height: 779 km
right ascension of ascending node: 277.3072°
argument of perigee: 93.7527°
revolutions per day: 14.34216692
mean anomaly at epoch: 309.6271°
orbit number at epoch: 94849

The dashed part of the orbit path shows where the satellite is in the earth's shadow,  

DLR